Theta_e
305 306 306 305 304 302 301 300 300 299 299 299 299 299 299 299 299 300 300 300 301 301 302 301 301 301 303 304 304 304 305 305 304 302 302 303 306 308 308 308 308 308 306 304 304 306 307 308 308 308 310 311 309 307 306 309 314 320 329 334 334 334 332 333 332 326 330 327 323 323 323 322 321 319 316 314 312 312 312 310 310 309 308 308 308 308 308 308
305 306 306 303 300 299 299 299 299 299 299 299 299 299 299 299 299 299 300 300 301 301 302 301 302 301 302 304 303 304 305 305 304 302 301 303 306 307 308 308 308 307 305 304 305 306 308 309 307 309 315 314 308 306 309 309 314 325 330 329 332 333 326 325 327 325 325 322 317 317 316 317 318 317 314 312 310 310 311 310 309 308 307 307 306 306 306 305
306 306 304 300 298 299 299 298 299 298 299 299 298 299 298 298 299 299 299 300 300 301 301 302 302 302 303 303 303 304 304 305 304 302 302 303 306 307 308 308 308 307 305 305 306 305 307 309 307 310 316 315 310 309 311 310 312 321 329 333 330 328 323 321 323 322 320 317 315 313 311 311 311 313 314 312 310 308 307 308 307 307 306 306 305 304 303 303
306 305 301 298 298 298 298 298 298 298 298 298 298 298 298 298 300 300 300 301 301 301 301 302 302 302 303 303 303 303 303 304 303 302 302 303 306 307 307 306 306 305 304 305 306 307 307 308 307 310 314 315 314 311 311 312 313 318 326 334 327 323 323 320 318 317 315 314 313 312 310 309 307 308 311 313 314 309 306 305 304 305 304 304 304 302 302 301
304 301 298 298 298 298 298 298 298 298 298 298 298 298 298 299 300 300 300 301 301 301 301 302 302 302 303 303 302 303 303 302 301 302 302 303 304 305 304 303 304 304 304 305 306 307 307 307 309 313 315 314 313 312 311 310 311 317 319 323 323 320 320 316 314 314 313 312 311 311 310 308 305 305 306 308 309 307 304 303 302 302 302 302 302 301 301 300
300 298 297 298 298 298 298 298 298 298 298 298 298 298 298 299 301 301 301 301 302 302 302 301 302 302 303 303 302 303 303 301 301 302 302 302 303 304 304 303 304 304 304 305 305 307 308 310 314 316 315 314 312 311 311 309 310 318 317 317 320 317 316 313 311 312 310 311 311 309 308 306 305 304 303 303 303 303 302 302 301 301 301 301 301 300 299 299
298 296 297 297 297 298 298 298 298 298 298 298 298 298 298 300 301 301 301 301 301 302 302 301 302 303 304 303 301 304 305 302 301 302 301 302 303 303 304 303 304 304 304 304 305 309 312 314 316 315 314 313 312 311 311 309 313 319 316 313 314 312 311 310 309 309 308 309 308 307 307 306 306 304 303 303 301 301 301 301 300 300 300 300 299 299 298 298
296 296 296 296 297 297 298 298 298 298 298 298 298 298 298 300 301 301 301 301 302 302 302 301 302 303 304 302 301 308 308 303 301 301 301 302 303 304 305 304 304 304 304 305 305 308 312 313 313 312 315 313 310 310 309 310 313 316 313 310 309 309 308 308 307 307 306 306 306 305 305 305 304 303 302 303 302 301 301 301 300 300 299 299 299 299 298 298
296 296 296 296 296 296 297 297 298 298 298 298 298 298 299 300 301 301 301 302 302 302 301 301 302 303 304 302 302 308 307 301 301 301 301 302 303 304 305 304 304 304 304 305 305 306 308 311 310 310 314 313 309 311 311 311 311 311 311 309 308 308 307 307 307 307 306 306 305 305 305 304 305 304 302 302 302 301 300 300 300 299 299 298 298 298 298 297
296 296 296 296 296 296 296 296 297 297 297 298 298 299 299 300 300 301 301 302 301 301 301 302 302 303 304 303 304 306 303 301 302 301 301 301 302 304 305 305 304 304 304 305 305 304 306 310 309 308 313 313 310 311 312 311 310 309 309 308 308 308 306 306 306 306 306 305 305 304 304 304 304 305 303 301 301 301 300 299 299 299 298 298 298 298 298 297
296 296 296 296 296 296 296 296 297 297 297 298 299 299 299 299 299 300 301 302 302 301 301 302 302 303 303 303 305 305 301 301 301 301 301 301 302 304 305 305 305 304 304 305 305 304 305 307 305 307 311 311 311 312 312 310 309 308 308 308 307 307 307 308 308 307 307 306 306 305 305 303 303 304 303 301 301 301 301 299 299 298 298 298 297 298 297 297
295 296 296 296 296 296 296 297 297 297 297 298 299 299 299 299 299 300 301 302 302 301 301 302 302 303 303 304 306 304 301 301 301 300 301 301 302 305 306 305 305 304 304 305 306 305 305 304 306 310 310 310 311 311 311 309 308 308 309 309 309 310 310 310 312 311 309 309 308 310 312 305 302 303 302 301 300 300 301 300 299 298 297 298 297 297 297 296
296 296 295 296 296 296 296 297 297 297 298 298 299 299 299 300 299 299 300 302 302 301 301 301 302 302 303 306 306 302 301 301 301 300 300 301 302 305 306 306 305 305 304 305 305 304 305 305 308 310 309 313 314 309 310 309 308 310 311 311 312 313 311 309 312 313 310 309 309 315 317 306 301 302 301 302 301 300 301 300 300 299 297 297 297 296 296 296
296 296 295 296 296 296 296 297 298 298 298 298 298 299 300 300 299 299 300 302 302 301 301 301 301 302 302 305 303 301 301 301 300 300 300 301 303 305 305 305 305 305 305 305 304 305 306 305 307 309 309 312 313 309 309 310 310 312 314 315 315 316 313 307 308 311 310 308 309 313 313 304 302 301 301 303 302 300 300 299 299 300 298 297 296 296 296 296
296 296 296 296 296 296 296 298 299 298 298 298 298 299 299 301 300 299 300 301 301 301 300 301 301 302 304 305 302 301 301 300 300 300 299 301 303 304 305 304 305 305 305 305 304 305 305 306 308 312 311 309 311 311 311 312 312 313 317 319 317 316 313 308 307 309 310 307 307 311 309 303 302 301 300 302 302 300 298 298 298 299 299 298 296 295 295 295
296 296 296 296 296 296 296 298 299 298 298 298 298 299 300 301 300 299 300 301 302 301 300 300 300 302 306 304 300 301 300 299 300 299 299 301 302 304 305 304 304 304 305 304 305 305 305 308 309 310 311 312 313 314 313 314 314 315 318 319 317 316 314 311 306 306 308 306 306 310 307 302 302 301 300 301 302 300 298 297 297 298 299 299 298 296 295 295
296 296 296 297 297 296 297 298 298 298 298 298 298 299 299 301 300 299 299 300 301 301 301 299 298 301 304 302 300 301 299 298 299 299 299 301 303 305 305 305 304 303 303 304 305 305 306 308 308 308 310 312 312 313 315 316 316 318 318 316 315 315 314 312 307 304 304 305 305 305 304 302 301 300 299 299 300 300 298 297 296 296 297 297 298 297 297 296
296 296 296 297 297 296 297 298 298 298 299 299 299 299 299 300 301 299 298 300 300 301 301 299 299 303 305 302 300 299 298 298 299 299 298 301 303 305 305 306 304 303 305 306 306 306 307 308 309 311 313 311 311 313 317 317 317 318 317 314 313 313 311 309 307 304 303 303 304 303 302 301 300 300 299 298 298 298 297 297 296 295 295 296 296 296 296 296
296 296 296 297 297 297 298 298 298 298 299 299 299 299 300 301 303 300 297 297 299 301 301 299 300 303 304 302 299 297 298 298 299 298 298 300 303 304 305 305 304 305 309 309 307 308 309 309 310 314 313 310 309 310 313 316 317 316 314 314 312 311 309 306 305 304 303 303 303 303 302 301 301 300 299 298 297 297 296 296 296 296 296 295 295 294 294 294
296 296 296 297 297 297 299 298 297 298 299 299 299 300 301 303 307 306 303 300 298 298 299 299 299 300 301 300 298 297 299 300 299 298 298 299 302 304 304 304 307 308 308 309 308 306 309 310 310 310 310 307 306 306 308 312 314 312 311 311 310 308 307 306 305 304 304 304 302 302 302 301 301 300 298 298 298 297 296 295 295 295 295 294 294 293 293 293
296 296 297 297 297 297 299 299 298 297 298 299 299 300 300 301 303 303 304 302 296 295 297 298 298 297 298 298 297 296 299 302 300 297 298 299 301 304 304 305 308 307 305 307 306 306 309 310 308 306 306 305 305 306 308 311 311 310 309 309 308 308 306 305 305 305 304 303 302 301 301 300 300 299 298 297 296 296 295 295 295 294 294 294 293 293 293 293
296 296 297 297 297 297 299 301 298 297 298 298 299 300 298 299 299 298 300 300 295 294 295 296 297 297 297 297 296 296 299 301 300 298 298 298 302 304 304 305 307 305 305 306 307 308 311 309 306 304 303 303 305 308 309 310 310 309 309 308 308 307 306 305 304 304 304 303 302 301 300 299 299 298 297 296 295 295 295 295 295 294 294 293 293 294 293 293
296 296 297 297 297 297 300 301 298 297 298 298 299 298 298 298 299 298 298 298 296 296 296 297 298 298 297 298 296 297 300 300 300 299 297 298 302 303 304 305 305 304 305 307 307 309 310 307 305 304 304 305 308 309 310 310 310 310 309 308 308 307 307 306 304 303 303 303 302 301 300 299 298 297 297 296 296 295 295 295 295 295 294 294 293 294 294 293
295 296 297 298 298 297 301 301 298 298 298 297 297 297 298 299 298 298 299 299 297 297 297 296 297 297 297 297 296 297 301 300 299 298 296 298 300 302 303 303 304 305 304 305 306 306 307 305 304 306 307 307 308 309 310 310 309 309 309 308 308 307 306 305 303 303 303 302 302 303 306 304 300 299 298 297 297 296 296 296 296 296 295 295 294 294 294 294
295 296 297 298 298 298 301 301 298 299 298 296 296 296 297 298 298 298 302 304 299 296 297 296 297 298 296 296 296 295 298 300 298 297 297 297 299 302 303 301 303 305 304 304 305 305 305 304 305 307 308 308 308 307 309 310 309 308 308 308 307 306 304 304 305 306 307 307 306 306 312 310 302 300 299 297 297 296 297 297 296 296 296 295 295 295 295 295
295 297 297 298 298 298 300 301 298 298 298 297 296 296 296 298 299 297 302 307 300 294 297 297 298 299 297 296 295 295 300 302 297 296 297 297 298 301 302 302 303 304 304 304 306 306 304 304 307 308 308 309 308 308 309 309 309 309 307 306 305 305 305 306 308 310 311 311 307 305 312 313 305 302 300 297 298 297 297 298 297 297 296 295 296 295 295 295
296 297 298 298 298 298 300 301 298 298 301 298 296 296 296 299 299 297 301 305 299 295 297 298 297 297 297 296 295 298 302 300 297 298 297 297 299 301 301 302 303 303 303 304 305 304 303 304 306 307 306 307 307 308 309 309 309 308 306 304 304 306 307 308 309 309 308 308 307 304 307 312 310 305 302 299 299 299 298 298 298 297 296 296 296 295 296 296
297 298 298 298 298 298 299 300 298 298 300 298 296 296 298 299 297 299 306 301 295 295 296 296 297 297 296 295 296 300 299 297 298 299 296 296 299 302 302 301 302 303 303 305 305 304 303 302 304 306 306 306 306 306 306 306 307 306 305 305 304 305 307 307 308 307 306 309 311 305 304 313 315 306 302 300 299 299 299 299 299 298 298 297 297 297 297 296
297 298 298 298 298 298 298 298 297 298 298 297 297 298 298 296 296 304 308 299 294 296 296 296 298 298 296 295 296 297 296 296 297 297 296 297 298 300 301 301 302 303 302 303 304 303 302 300 301 304 305 305 304 305 307 306 305 305 305 306 305 305 307 307 307 309 312 315 312 303 302 312 317 307 302 302 301 300 300 300 300 300 300 299 298 298 297 297
298 298 297 298 298 298 299 298 297 298 298 296 297 298 296 297 303 308 303 296 295 296 296 297 298 297 295 296 297 296 295 296 295 295 297 298 297 298 298 299 301 304 304 303 302 302 301 300 300 302 304 305 304 304 306 306 305 306 307 307 307 308 310 310 308 310 318 318 308 302 302 307 315 312 303 302 303 302 301 301 301 301 300 299 299 299 297 297
298 297 297 298 297 298 298 298 298 298 298 297 297 296 296 301 308 306 298 295 297 297 297 298 298 297 295 294 296 296 296 296 295 295 297 297 297 296 297 299 300 304 306 304 304 304 301 300 300 300 301 304 306 304 304 306 307 308 309 308 308 311 312 313 314 314 320 318 306 303 302 303 313 316 306 302 304 303 301 301 301 301 300 299 298 299 298 297
298 298 297 297 297 297 298 298 298 297 298 297 295 297 302 304 303 299 297 296 295 297 297 297 298 297 295 294 295 295 296 296 295 295 295 296 296 295 296 297 296 304 307 305 307 307 303 301 300 301 301 301 305 307 304 307 309 308 309 310 312 312 313 316 315 312 314 311 303 302 303 303 309 312 308 304 303 303 302 300 301 300 301 301 299 299 298 296
298 298 297 297 297 296 297 298 298 298 297 295 297 306 310 305 298 296 299 299 295 295 296 297 298 296 295 296 295 295 296 295 294 295 295 295 296 295 296 294 294 301 305 302 305 308 307 304 300 301 302 300 302 307 307 307 308 309 310 312 315 315 316 316 310 306 309 307 302 300 302 306 309 305 305 305 302 303 303 300 300 300 300 301 299 298 297 297
297 298 298 297 297 296 296 297 298 298 295 294 304 315 308 301 298 297 301 302 296 294 296 297 296 296 296 296 294 295 298 296 294 294 295 295 297 296 296 295 294 297 301 301 302 303 306 305 300 300 301 299 299 301 304 306 308 308 307 310 315 317 317 317 313 313 313 308 303 301 303 309 311 304 302 303 301 300 302 300 298 299 299 299 297 296 297 297
297 298 298 297 297 296 296 296 298 298 295 295 303 309 303 300 300 299 301 301 297 295 297 295 294 297 298 295 294 294 296 297 295 295 296 294 296 296 295 296 294 294 299 303 301 299 301 300 298 299 298 298 299 297 298 304 307 304 305 311 311 308 309 309 306 307 308 309 307 304 305 304 304 302 300 300 301 300 301 301 300 301 300 299 299 298 297 297
298 299 299 297 296 297 296 296 297 297 296 297 302 302 299 298 297 297 298 298 297 296 296 296 295 299 300 298 297 295 295 296 296 298 298 294 295 296 294 296 294 292 296 300 300 301 302 298 297 300 298 295 297 298 296 300 304 305 307 309 304 300 304 307 303 298 300 308 306 302 307 306 302 302 300 299 302 302 302 303 302 302 301 300 300 298 297 297
299 300 299 297 296 297 297 296 297 297 297 300 304 301 297 296 295 296 297 296 296 294 296 299 297 297 300 302 300 295 296 298 296 299 299 295 296 295 294 296 295 293 293 295 298 299 301 301 296 297 299 297 295 297 298 297 300 308 310 304 299 299 302 308 311 307 304 308 308 303 307 309 305 304 302 300 303 304 303 304 303 303 302 301 300 298 297 296
299 300 299 297 297 297 297 297 297 298 299 301 303 299 295 294 294 295 297 296 295 295 297 299 296 295 298 301 299 295 296 298 297 299 301 298 296 294 294 296 295 294 291 293 299 297 299 305 299 294 298 299 297 300 305 301 299 305 306 300 301 304 304 306 308 308 306 306 307 305 303 304 305 307 307 305 305 305 303 303 303 303 302 301 300 298 297 296
299 302 302 297 297 298 297 297 296 298 301 302 302 298 295 296 296 294 293 294 295 296 298 298 295 296 297 297 298 297 296 296 296 298 301 299 295 294 295 295 294 294 292 293 298 296 297 306 303 296 297 299 300 304 306 304 301 303 304 301 302 303 303 303 302 304 308 306 303 303 307 309 306 306 309 308 307 304 302 302 302 302 301 301 300 299 298 297
297 304 304 296 297 299 297 297 297 299 303 300 297 296 294 297 298 293 290 292 295 296 296 297 296 297 298 296 296 296 295 296 295 297 298 296 294 295 295 294 293 293 294 295 296 295 298 307 305 299 299 300 301 300 299 300 302 304 306 305 304 300 297 298 298 297 303 308 305 301 305 312 306 301 305 306 303 300 300 301 301 300 300 300 299 299 299 298
299 310 306 296 298 298 298 302 298 296 300 296 295 296 295 297 298 295 293 293 294 295 295 297 297 296 297 297 296 296 296 297 296 297 297 295 295 295 294 295 293 292 295 299 298 295 298 306 307 302 301 301 300 297 295 297 298 299 301 302 302 301 300 304 300 293 295 303 305 299 302 312 305 298 301 302 300 300 300 301 301 299 300 300 299 299 299 298
306 313 303 297 299 297 301 305 294 290 298 298 295 295 296 296 296 295 296 293 294 296 295 296 297 296 296 297 296 295 296 297 296 297 297 295 296 296 295 294 293 291 295 299 298 295 295 303 307 302 299 298 295 293 294 294 295 296 296 297 298 298 304 313 304 297 296 296 295 295 301 310 304 298 301 302 300 301 300 300 301 299 299 299 299 299 298 298
310 307 300 297 297 299 304 307 297 293 297 295 291 292 294 297 297 296 296 295 296 297 297 297 296 295 295 295 295 295 295 295 294 295 296 295 295 296 295 294 293 292 295 297 297 296 295 299 304 304 303 300 295 292 292 293 295 297 296 295 297 295 299 305 301 300 303 300 298 299 301 307 306 300 301 301 300 302 301 300 301 300 299 298 298 298 297 297
307 301 301 298 295 303 313 311 306 301 297 294 295 295 294 294 297 298 297 297 298 298 298 297 295 294 294 294 295 295 294 295 294 293 294 294 294 295 295 296 293 293 296 297 296 297 296 296 301 308 308 305 302 299 297 295 296 298 297 295 296 295 295 297 295 300 305 300 299 303 304 309 306 299 301 303 303 306 306 302 300 299 299 298 297 297 296 295
303 299 303 301 294 299 306 303 304 305 300 298 300 298 296 296 296 297 298 297 296 296 296 294 294 296 295 294 296 295 293 294 294 294 296 296 295 296 296 296 293 292 296 295 294 298 297 293 297 307 307 302 303 303 299 297 295 295 295 295 297 296 296 297 297 303 304 295 294 302 307 307 302 297 300 303 304 307 307 305 302 299 299 298 296 296 295 294
306 305 308 307 299 296 296 293 297 304 302 303 302 297 297 299 295 294 296 295 295 295 295 293 292 294 295 297 300 298 295 295 295 296 298 298 298 297 295 296 294 292 295 295 292 294 296 292 293 303 310 307 307 303 296 296 296 294 294 296 297 295 293 294 297 302 302 297 299 305 302 300 301 300 300 302 303 304 304 305 305 302 300 298 296 296 295 295
307 307 301 303 304 302 301 297 299 304 302 303 302 295 297 300 296 295 294 293 295 296 295 294 293 294 296 298 300 298 295 295 295 295 296 296 297 295 293 294 294 292 294 295 290 293 303 301 292 296 304 301 297 296 293 294 298 297 295 296 298 297 293 292 296 297 295 297 305 305 295 296 301 300 299 300 299 298 298 299 299 298 298 297 297 297 296 296
301 301 294 296 302 303 300 300 301 302 300 301 300 297 300 302 298 297 296 293 294 294 294 295 294 296 297 295 297 298 296 297 296 296 297 296 296 296 295 294 292 291 294 295 292 295 306 304 292 293 302 296 289 290 292 294 296 296 296 297 297 298 297 296 298 297 293 297 303 301 294 296 298 296 295 296 295 294 295 294 293 295 295 295 295 296 296 296
296 299 294 293 299 300 298 297 298 302 302 302 301 299 303 306 301 297 295 294 295 294 294 293 292 295 297 294 297 298 296 297 296 295 297 297 295 296 299 298 294 291 292 296 295 293 299 301 292 290 299 295 288 289 290 292 296 296 297 298 296 297 298 297 299 298 294 297 299 296 294 295 294 294 294 294 294 294 293 294 295 297 298 296 295 296 296 295
301 304 300 298 299 299 299 298 299 306 304 301 302 299 300 305 303 298 294 294 295 294 294 293 292 295 296 295 297 296 293 295 295 292 294 295 294 295 295 295 295 294 293 295 295 293 296 297 288 286 299 298 290 290 291 292 296 298 297 295 293 295 296 294 296 296 295 297 297 294 295 296 294 295 296 296 297 297 297 298 300 300 299 298 298 298 297 296
298 297 297 304 304 298 300 299 299 306 304 302 304 300 299 304 301 298 297 294 295 296 294 294 297 297 296 295 296 294 292 293 294 292 293 293 292 293 292 291 291 294 295 294 295 296 299 297 288 290 304 303 292 292 295 292 293 297 299 299 294 293 296 295 294 294 296 299 298 296 299 301 299 298 299 299 300 300 300 300 300 298 298 298 299 299 298 296
295 293 294 305 305 296 298 299 298 302 301 300 302 299 299 303 298 296 298 295 294 295 293 295 298 298 297 297 296 293 293 294 293 291 291 292 292 292 292 291 290 292 294 293 292 291 292 298 298 296 305 308 296 292 294 295 299 301 300 301 298 295 295 295 294 294 294 297 300 300 303 303 299 297 299 299 299 299 299 299 298 298 297 296 297 297 296 296
Wind_Speed
15 15 15 15 14 13 12 13 13 14 15 16 17 18 19 18 17 15 14 14 14 15 15 14 13 12 13 12 13 14 10 3 3 7 12 10 12 12 11 13 13 14 15 15 14 11 8 10 13 12 4 2 3 0 1 2 2 3 2 4 4 4 4 4 5 6 8 7 4 6 5 11 11 6 5 8 16 13 14 15 12 14 16 15 15 14 12 15
15 16 16 15 14 13 13 13 13 14 15 16 17 19 20 20 18 15 13 12 12 14 14 14 13 12 13 12 13 13 9 2 0 6 11 12 13 12 11 13 12 13 15 12 11 10 7 6 9 9 5 2 3 1 1 1 2 3 3 4 4 5 2 1 4 5 8 11 9 10 8 10 9 4 4 8 11 13 15 12 12 14 15 16 18 19 15 21
16 16 16 15 14 13 13 13 13 14 15 17 18 21 22 21 19 15 12 11 11 12 14 14 12 11 12 12 12 12 8 3 2 4 12 15 13 13 12 12 12 12 12 9 8 7 5 4 5 5 4 2 2 2 2 1 1 2 3 4 4 5 3 6 4 8 10 15 17 12 11 15 11 5 3 9 13 16 15 10 12 12 13 13 15 18 15 21
17 16 15 14 13 12 13 13 14 15 17 18 21 24 24 22 18 14 11 10 10 10 13 14 11 11 11 12 12 10 8 4 1 6 14 16 13 12 11 11 11 10 9 7 6 5 4 5 4 3 4 2 3 2 2 1 1 2 3 4 4 4 5 8 7 13 10 14 17 12 15 18 12 11 7 9 13 12 11 10 11 9 10 11 12 14 15 23
16 15 14 13 13 13 14 14 15 17 19 21 24 25 24 22 17 13 11 9 9 10 13 13 11 11 10 11 12 9 7 3 3 10 16 16 14 12 10 10 10 8 6 6 5 4 4 5 5 4 4 2 2 3 1 2 1 3 2 2 4 6 8 6 8 13 10 12 15 13 16 12 9 15 14 15 14 7 7 10 11 9 9 10 10 12 16 24
15 14 14 14 14 14 14 15 17 19 21 24 25 25 23 20 15 13 12 9 9 11 14 13 11 9 8 11 11 8 5 2 6 14 17 17 14 12 9 8 8 5 5 5 4 4 3 4 5 3 3 2 1 3 2 3 1 4 3 4 4 9 11 5 7 10 9 14 14 12 12 10 15 15 13 18 16 9 9 10 10 11 11 11 12 13 16 20
15 15 14 14 14 14 15 17 18 20 23 24 24 23 22 19 16 15 12 10 10 12 15 12 10 7 6 11 9 6 5 1 10 16 17 17 13 11 9 6 4 4 6 5 4 3 3 5 4 3 3 3 1 3 2 3 4 7 4 6 7 12 14 8 9 11 14 19 15 14 16 13 18 14 10 17 16 11 12 11 11 13 14 13 13 15 15 18
15 15 15 15 15 15 16 17 19 21 23 23 22 21 20 17 16 15 13 12 11 13 14 10 7 5 6 9 5 3 3 5 13 17 18 17 12 10 8 5 2 3 5 5 3 0 2 4 2 2 3 2 1 1 1 4 7 6 6 7 9 13 15 13 14 17 19 18 15 21 20 14 16 16 14 15 13 12 12 12 11 11 13 14 14 14 15 19
15 15 15 15 15 16 16 17 19 20 21 20 19 19 18 17 16 16 15 14 13 13 11 7 5 4 6 6 5 3 4 9 16 18 18 17 12 8 6 4 1 2 3 3 1 1 2 2 1 2 3 2 2 1 1 4 3 4 9 11 13 14 13 14 14 16 17 10 15 24 17 10 9 11 15 14 11 11 10 12 11 10 13 13 10 12 18 20
15 15 15 15 15 16 16 17 17 18 18 17 17 18 18 18 16 14 13 14 15 11 6 4 3 4 5 4 6 4 6 13 17 17 17 16 11 5 5 3 1 0 2 4 1 1 1 3 3 3 5 2 2 1 3 5 6 10 15 16 17 15 10 12 14 15 15 9 16 26 17 13 9 7 10 9 10 9 9 10 9 10 13 12 10 13 19 19
16 16 16 16 16 16 15 15 15 15 16 14 14 17 18 20 18 14 11 13 16 9 1 2 3 4 5 3 5 3 8 15 16 17 18 14 9 4 4 4 2 2 4 4 1 2 1 5 5 2 2 1 1 3 5 8 13 16 20 19 16 16 11 9 10 8 9 8 13 23 20 16 13 9 8 5 8 8 8 9 8 10 11 10 12 13 15 16
17 18 18 18 17 16 15 14 14 15 13 9 11 16 19 22 22 16 11 12 15 9 1 2 2 5 5 4 2 0 10 17 15 19 20 13 8 4 4 4 2 4 5 4 2 1 0 3 3 4 0 1 3 4 5 9 14 16 20 20 12 14 11 7 4 3 4 9 4 10 15 15 13 9 7 5 6 5 7 8 8 10 10 9 10 9 12 16
18 19 20 20 19 17 16 14 13 14 11 5 6 13 20 24 25 20 12 12 14 10 4 3 5 6 4 2 2 3 13 17 16 21 21 14 6 3 4 5 5 6 6 5 4 2 2 2 1 3 0 3 2 1 4 8 11 13 16 15 9 10 8 8 5 4 4 2 5 3 6 7 9 9 7 5 4 5 6 8 7 7 8 8 7 7 10 16
19 20 21 22 21 19 16 13 13 14 10 6 4 7 18 24 27 23 12 8 12 12 6 2 5 5 2 2 3 7 17 17 19 24 24 14 4 5 6 6 7 8 7 6 6 4 2 2 1 3 1 3 1 1 8 7 7 10 12 9 6 8 4 5 6 4 5 4 4 8 7 2 5 8 7 5 4 4 6 7 7 6 7 6 6 7 8 12
20 21 22 23 22 20 17 13 14 14 11 8 7 3 13 22 27 24 13 4 9 15 7 3 5 5 1 2 3 11 20 21 24 26 24 14 4 6 6 9 10 9 8 8 7 6 2 1 3 3 1 2 2 6 9 5 4 6 8 6 5 6 3 3 8 6 3 3 6 11 8 3 5 6 6 4 4 4 6 7 6 6 7 7 7 8 7 9
20 21 23 23 23 22 16 13 14 14 12 9 7 6 4 16 23 25 15 2 3 12 12 5 8 4 4 3 9 14 19 21 23 24 21 11 3 6 8 11 11 10 9 9 9 5 3 4 3 2 1 3 3 7 8 5 4 2 4 7 6 8 6 1 8 9 2 2 8 9 9 5 5 6 5 4 4 3 6 7 7 6 7 7 7 7 7 7
20 21 23 24 25 23 16 13 15 15 11 7 7 7 4 7 16 25 21 7 2 5 11 14 10 1 3 7 12 11 15 20 20 22 21 10 5 8 10 8 7 8 9 9 7 3 4 4 1 1 3 4 2 5 7 7 6 3 4 6 5 9 6 3 5 8 7 10 10 13 13 8 7 7 6 5 4 4 5 6 7 6 6 7 6 6 6 6
19 21 24 24 25 23 15 13 15 15 11 5 5 6 6 5 6 21 29 20 9 2 6 16 12 3 2 10 10 11 20 22 16 19 22 11 6 7 6 5 5 5 6 6 5 4 3 3 2 2 3 4 2 2 6 7 8 9 9 8 7 8 6 6 5 4 13 17 13 14 14 10 8 7 6 5 4 5 5 6 6 6 7 7 6 6 5 6
19 21 24 24 24 22 13 13 16 14 11 3 4 4 5 5 2 10 23 22 12 5 2 7 8 3 4 9 10 17 21 14 9 17 25 16 6 7 7 7 5 4 4 3 3 3 2 3 3 3 2 2 2 1 3 2 6 10 10 10 10 9 7 8 9 7 16 20 12 11 13 10 8 6 4 4 4 5 5 6 5 5 6 6 6 5 4 5
19 21 24 24 24 20 12 13 16 14 14 6 4 3 3 2 3 3 11 12 6 5 2 3 1 1 4 8 11 21 18 6 7 19 30 20 3 5 6 5 4 4 4 2 2 1 2 5 3 1 2 3 1 2 3 2 11 14 12 11 11 12 8 7 9 5 8 14 9 8 11 10 7 5 4 4 5 6 5 5 4 4 4 4 4 4 4 3
19 21 24 23 22 18 10 12 16 14 15 9 2 1 1 2 3 2 5 5 1 3 1 4 3 1 6 7 11 20 10 4 11 20 30 23 5 3 4 3 5 4 3 2 1 2 3 5 1 4 5 5 3 3 2 8 17 15 12 12 11 10 8 6 6 2 3 11 7 6 11 9 7 5 4 5 5 5 4 4 4 4 3 3 2 2 3 2
20 21 23 23 21 16 8 11 16 12 10 7 4 6 4 4 4 1 2 2 1 2 2 5 1 3 10 4 10 19 4 4 13 16 27 24 9 5 3 3 6 3 3 2 2 4 5 2 4 5 4 3 1 1 7 16 18 13 10 11 9 8 9 7 6 5 6 10 7 5 9 7 5 5 4 4 4 3 3 3 3 3 2 2 2 2 2 2
20 20 22 22 20 14 6 9 14 10 8 9 9 7 4 3 3 1 1 2 2 2 1 6 5 9 13 7 15 20 6 4 7 10 22 17 5 3 2 4 7 5 4 4 4 4 3 3 8 4 3 6 6 5 12 16 11 9 9 10 8 5 6 5 5 7 9 9 9 9 8 5 3 4 3 3 2 2 3 3 2 2 2 2 2 3 2 3
18 19 21 21 19 13 5 6 11 9 10 12 11 7 2 2 1 1 2 2 3 4 3 5 3 6 10 8 17 14 2 2 3 9 19 12 3 2 2 3 6 7 5 5 8 8 4 6 6 1 7 11 12 9 13 13 6 5 7 10 10 7 8 9 7 11 14 10 7 7 6 3 1 2 1 1 1 0 2 2 2 2 2 3 4 3 3 3
17 18 20 19 17 12 4 4 10 9 7 7 8 6 2 1 2 0 3 3 3 6 6 6 4 9 11 12 17 8 3 3 3 6 14 11 4 1 2 2 3 5 3 5 10 9 6 8 3 7 10 12 12 7 6 9 9 5 3 6 14 14 15 16 14 11 9 5 1 1 3 1 1 1 2 1 1 2 1 2 3 3 3 4 4 4 3 3
16 16 17 18 16 11 3 1 8 7 3 4 6 5 1 1 2 1 3 5 5 5 9 9 6 12 16 15 16 5 2 6 8 11 18 17 7 2 2 3 1 3 1 2 6 4 6 10 6 8 10 9 9 6 5 4 11 5 3 5 17 19 18 16 12 8 5 4 2 1 1 1 1 3 4 3 3 4 1 2 4 4 3 3 3 4 4 4
15 15 16 17 15 12 3 0 5 3 2 3 3 2 1 2 2 1 3 5 5 4 7 8 5 11 15 14 14 4 3 7 11 14 20 19 10 1 5 5 2 4 2 3 5 1 5 10 10 9 10 8 6 4 5 3 8 4 2 8 15 16 15 11 8 6 5 5 4 3 3 1 1 2 2 3 2 4 3 4 5 3 4 4 4 4 4 4
13 14 15 16 15 13 5 1 4 2 1 2 1 1 3 4 2 2 5 5 4 4 2 5 7 10 12 11 11 6 2 7 5 9 17 18 11 3 8 9 8 11 6 5 6 2 4 9 9 7 9 7 3 2 1 7 10 6 8 10 7 8 10 7 7 7 5 5 3 4 5 1 2 2 1 2 2 6 6 6 6 5 6 6 5 6 5 5
12 12 15 16 14 13 6 2 4 3 3 0 4 4 5 5 2 4 6 3 3 4 1 4 8 9 11 10 9 7 2 4 3 6 14 14 14 7 6 4 9 17 14 12 11 1 2 5 5 6 8 5 4 4 4 11 11 8 10 9 5 7 8 6 5 4 4 5 2 3 4 2 2 2 1 1 4 8 7 6 7 6 7 7 6 6 6 5
11 11 14 16 15 14 7 3 6 7 4 3 6 5 6 4 4 6 6 2 1 4 2 4 5 5 11 10 8 9 8 5 4 5 7 8 13 13 4 2 5 12 12 15 13 3 3 3 3 5 5 1 7 11 9 11 13 11 10 8 6 6 5 4 3 2 5 2 1 2 2 1 1 3 4 5 4 6 6 5 5 6 7 7 6 6 6 5
10 11 14 15 15 15 8 5 8 7 3 5 7 5 5 2 5 7 3 2 1 4 4 5 4 6 10 7 6 9 7 7 8 9 9 8 12 15 8 3 4 7 9 11 8 5 9 8 2 2 3 3 11 13 8 8 10 8 5 5 5 4 3 3 4 3 4 2 4 1 3 0 1 4 5 7 6 4 6 7 7 9 8 7 6 6 6 5
8 11 15 16 17 17 11 8 8 5 1 5 5 4 4 3 5 3 1 4 3 4 3 3 5 6 9 5 5 9 6 6 8 7 7 6 8 10 10 7 4 3 7 4 2 6 10 11 6 1 4 8 8 7 3 4 5 5 3 3 4 3 2 3 2 2 1 3 3 3 4 1 3 5 4 7 9 6 6 8 8 9 9 8 7 7 5 4
5 9 15 17 18 19 14 10 6 1 1 5 3 4 6 6 4 1 4 3 2 3 2 3 6 7 8 5 7 8 4 4 7 7 4 3 5 6 8 11 8 3 3 1 1 5 6 9 12 8 4 7 5 4 4 1 2 2 2 3 3 3 3 1 0 2 1 3 2 4 3 1 3 4 3 6 8 7 6 6 6 7 8 8 7 5 5 5
5 6 14 18 19 21 16 11 6 2 3 4 3 6 9 6 1 1 3 3 2 4 3 3 7 7 5 4 4 6 3 3 6 7 6 6 7 6 7 12 13 5 1 3 3 4 4 4 9 7 3 6 6 3 2 2 3 1 1 4 3 3 4 3 2 2 2 2 2 4 2 1 2 2 4 6 5 4 3 3 3 3 4 4 3 4 4 5
5 4 12 18 21 21 18 11 6 3 2 3 7 7 8 3 3 1 1 4 2 4 5 3 4 5 5 3 3 5 3 3 7 7 7 7 6 5 6 8 11 7 2 3 1 2 4 2 3 3 2 3 5 2 1 2 2 1 0 3 2 1 4 4 3 4 3 0 1 1 2 3 3 4 4 3 3 2 1 2 2 4 5 3 3 5 5 6
5 3 8 19 23 21 17 12 9 6 2 5 10 6 3 2 2 1 1 2 1 3 6 4 3 4 6 5 4 8 5 3 6 6 4 4 5 6 6 4 7 8 4 2 1 1 3 1 4 4 2 2 2 2 1 1 1 1 3 2 1 2 6 6 2 1 3 2 0 1 3 4 3 3 4 4 2 3 2 2 4 5 5 4 5 6 6 6
5 2 5 19 26 20 12 8 11 10 4 7 10 4 2 2 2 2 1 2 1 2 3 3 3 3 4 4 5 10 9 4 6 6 4 4 4 7 7 4 2 6 2 0 1 0 3 2 3 3 2 2 1 3 4 2 2 3 3 3 2 3 5 5 2 3 4 1 2 2 2 4 3 2 4 3 3 6 5 5 5 6 6 6 7 8 7 8
6 2 3 18 25 18 10 4 4 9 8 9 8 3 2 0 1 2 2 2 1 2 4 3 2 2 1 2 3 8 8 5 5 5 3 4 2 3 7 4 2 5 4 1 1 2 3 3 3 2 0 5 4 5 4 5 5 4 4 3 2 3 2 2 3 2 2 1 3 4 3 3 3 3 3 3 7 9 8 6 6 8 8 8 9 8 8 8
6 2 3 18 23 13 10 7 5 7 9 7 4 2 2 1 2 3 2 2 1 1 4 2 2 2 2 1 1 5 5 4 4 2 2 3 2 3 6 3 4 6 6 2 2 1 1 5 1 4 1 3 4 6 2 6 7 5 4 3 2 3 2 2 3 2 2 2 1 3 3 3 5 4 4 7 9 9 8 7 8 10 10 9 8 8 8 7
4 2 1 19 21 7 6 13 12 9 7 4 2 1 1 1 3 3 3 2 1 1 2 1 2 3 2 1 0 2 3 3 3 2 2 2 1 2 5 3 5 8 7 3 3 1 2 4 1 5 4 3 3 3 1 1 3 3 4 4 2 2 1 2 3 2 3 3 2 1 3 4 5 3 4 6 6 5 6 7 8 9 9 8 8 7 7 7
4 3 3 18 19 3 4 13 11 6 4 3 1 2 1 1 2 3 2 2 1 1 1 2 2 2 1 2 2 1 2 3 3 3 2 3 3 2 3 3 4 7 5 5 4 2 2 3 3 2 5 3 1 2 1 3 2 1 1 1 0 1 2 4 3 2 2 3 3 2 1 6 5 2 4 5 5 5 6 7 7 8 8 8 8 8 8 8
5 3 4 17 14 5 8 9 4 3 4 2 1 0 1 1 0 3 2 1 1 1 2 3 2 2 1 1 1 1 2 3 3 3 2 2 2 0 2 5 5 4 1 2 3 1 1 3 4 2 1 0 2 2 1 0 1 2 1 1 2 2 4 5 1 2 1 2 1 2 0 6 5 3 4 5 5 5 5 6 7 8 8 8 8 8 8 8
3 3 5 17 10 2 10 7 2 4 3 1 1 1 2 1 0 2 2 3 2 1 2 2 0 1 1 0 0 2 3 2 2 2 1 2 2 3 4 7 5 2 2 2 2 1 2 4 4 2 4 3 4 3 2 3 2 3 2 2 2 2 2 4 4 2 3 1 1 2 1 6 5 2 3 4 5 5 4 5 7 7 7 7 8 8 7 8
2 4 4 17 11 2 5 4 2 2 1 1 2 2 2 1 0 2 2 2 2 1 2 1 1 1 1 0 1 1 1 2 2 2 1 0 2 1 2 6 6 4 2 1 2 2 2 2 3 3 4 6 6 5 5 5 3 2 1 2 2 3 4 3 2 3 3 3 4 3 2 6 5 3 4 4 4 5 5 5 5 6 7 7 7 7 7 7
3 1 3 14 18 10 5 3 5 5 3 2 3 2 2 1 1 1 1 1 1 1 1 1 1 1 1 1 2 2 2 2 2 2 2 1 3 2 3 6 5 4 2 1 2 1 2 2 2 5 4 1 1 2 3 3 2 1 1 2 2 3 3 1 1 4 1 2 3 4 4 6 7 5 5 5 5 5 6 5 3 5 7 7 7 6 6 6
2 2 2 8 13 11 3 1 4 6 4 4 3 1 1 2 1 1 1 1 1 1 2 2 2 1 2 3 3 3 4 3 2 2 2 3 3 2 4 5 3 5 3 3 5 3 5 3 2 6 6 5 5 6 4 1 1 1 2 2 0 1 2 3 3 1 2 3 2 5 5 5 11 8 5 6 5 4 6 6 6 6 6 6 7 6 6 6
2 2 1 2 4 5 4 3 4 4 3 3 3 0 1 2 1 1 1 0 1 1 2 2 2 2 2 3 3 2 4 4 3 3 1 3 3 3 4 3 3 9 6 2 3 3 5 3 2 4 5 5 5 5 2 1 2 4 3 2 2 2 4 4 1 3 4 3 3 7 4 2 10 9 6 7 7 6 8 8 7 7 7 7 6 6 7 7
2 2 1 0 1 2 2 2 3 5 4 3 3 1 1 2 1 1 1 0 1 1 0 2 4 4 2 1 2 2 4 4 4 3 1 2 3 4 4 2 2 7 7 3 3 3 6 2 1 2 3 5 4 4 3 1 2 3 4 4 4 4 6 5 5 5 7 5 6 5 4 5 11 11 10 10 8 8 10 8 7 7 8 8 7 7 8 8
3 3 0 2 2 3 1 1 4 6 5 3 3 2 2 3 2 1 1 1 2 2 1 3 3 3 2 1 2 3 2 2 2 2 1 1 3 2 3 3 2 4 6 5 4 2 4 1 2 2 4 5 3 3 3 3 1 2 5 6 5 6 8 7 5 4 6 6 8 4 5 12 13 11 12 11 7 6 7 7 7 7 8 8 7 8 9 9
2 3 2 3 4 1 0 2 3 4 4 3 2 1 2 4 3 1 0 2 1 2 2 3 2 1 0 1 3 3 0 2 1 2 2 0 3 1 1 1 2 5 7 4 3 2 2 1 2 2 2 5 3 2 1 2 1 4 7 6 6 5 5 5 4 2 3 6 8 4 7 12 9 6 9 8 5 4 5 6 7 7 7 7 8 8 9 9
3 4 5 6 4 2 2 2 2 4 2 2 2 3 2 3 4 3 2 1 1 0 1 3 5 2 2 4 5 2 2 3 3 2 3 2 1 1 1 1 1 5 7 4 4 5 3 2 1 3 4 3 2 2 3 3 0 4 10 9 7 6 4 4 4 4 6 4 2 0 4 8 6 2 4 5 4 4 6 8 7 7 7 7 8 9 9 9
5 3 4 6 3 2 1 1 2 3 2 1 2 3 2 3 4 3 3 1 1 2 0 5 6 2 3 5 3 2 3 3 4 1 1 2 2 3 2 2 3 3 4 2 3 4 3 3 1 4 2 3 4 1 3 4 3 2 6 5 7 7 5 4 3 6 9 7 5 4 6 6 3 1 3 5 6 7 8 7 6 7 8 7 8 9 9 9
Wind_Direction
8 6 3 1 7 13 17 19 19 16 14 10 6 4 2 359 357 359 2 3 3 2 0 356 357 0 360 358 352 342 337 300 256 11 24 5 346 341 340 339 337 337 336 340 356 8 7 17 8 5 49 80 10 275 9 354 49 71 114 136 177 178 192 195 156 168 124 126 108 66 64 102 105 76 89 56 46 55 58 52 46 49 43 34 20 7 7 33
5 3 1 5 16 21 20 18 15 12 7 3 1 357 354 351 348 347 349 355 355 357 357 351 353 354 354 355 350 347 346 331 118 36 16 357 348 340 336 340 337 331 337 349 1 11 17 1 344 357 38 51 351 3 27 335 69 90 132 132 197 181 125 318 154 138 112 123 100 72 59 71 75 56 69 66 49 43 48 30 23 34 25 16 10 13 17 41
3 1 3 11 14 13 11 8 5 1 357 354 351 349 348 350 349 345 343 349 349 352 355 351 351 350 350 352 352 350 344 10 87 11 357 354 347 340 338 338 337 331 337 355 359 7 18 352 335 356 48 54 341 18 63 26 77 133 119 117 211 188 71 10 87 104 114 121 101 86 75 62 44 30 84 95 70 44 43 20 13 23 9 357 359 9 10 41
2 3 7 10 6 2 359 355 353 349 347 345 345 346 348 353 355 352 345 347 348 350 353 350 349 350 347 350 357 349 344 37 48 333 349 348 342 339 335 332 334 334 340 359 358 7 13 8 17 37 64 47 329 14 95 315 205 136 100 144 187 157 71 20 78 98 101 108 103 103 83 71 50 41 51 90 77 40 31 24 19 18 3 351 354 5 15 46
3 6 7 4 357 352 348 344 343 340 340 340 342 345 350 357 0 358 351 349 351 353 352 349 347 348 349 351 354 346 354 57 330 340 350 343 339 337 332 329 329 334 351 4 2 10 1 12 40 46 56 69 352 42 141 271 102 94 30 145 144 119 90 41 80 95 98 99 95 89 80 89 77 48 41 62 71 49 29 26 25 22 13 360 359 15 32 51
6 6 2 357 350 344 340 337 336 335 336 337 341 346 353 1 4 1 355 353 356 357 350 344 348 351 348 348 351 3 38 105 324 346 347 341 336 331 334 329 325 342 0 8 15 26 13 16 46 51 44 67 94 118 158 291 46 98 9 23 69 103 102 82 79 85 96 90 82 83 86 101 88 64 44 57 60 53 49 33 30 29 23 16 11 28 42 52
6 3 358 352 345 339 334 333 332 333 334 337 342 348 357 6 8 5 1 0 1 357 347 342 352 356 345 348 351 28 64 269 327 346 344 340 332 326 337 329 318 342 358 20 30 51 51 36 64 100 77 78 111 142 140 343 50 92 72 47 60 88 95 94 90 88 88 85 85 89 83 76 83 80 50 53 50 41 46 36 38 38 29 30 28 30 42 52
5 1 356 349 343 337 332 331 331 333 334 338 345 353 2 8 9 12 13 10 5 353 344 342 355 352 341 355 8 34 30 315 336 348 344 339 331 329 336 324 287 319 1 47 27 177 82 53 99 124 86 109 139 157 97 54 56 78 99 88 78 84 92 98 98 95 89 90 90 81 75 72 83 83 56 43 35 32 39 31 29 38 34 36 37 31 39 49
7 1 355 348 342 336 333 331 331 332 334 340 351 359 4 8 12 18 18 10 0 345 338 343 349 341 335 1 63 64 334 337 347 347 343 342 338 339 338 326 223 307 22 79 28 78 105 110 195 162 148 170 122 135 52 79 71 98 113 105 97 93 98 101 94 92 90 95 92 77 65 62 76 77 55 31 18 21 35 36 19 29 39 35 32 33 41 44
8 2 357 350 343 338 334 331 331 332 336 346 359 4 7 13 18 18 12 3 357 347 337 349 337 340 342 8 67 49 342 351 354 350 346 345 341 344 357 3 117 175 91 111 110 18 1 183 189 157 142 116 99 72 18 99 118 117 110 99 97 96 95 93 92 95 88 73 84 84 66 41 41 67 64 31 20 17 29 45 28 35 44 35 29 35 41 41
8 4 359 353 347 341 336 334 334 334 338 352 6 12 16 20 23 16 6 2 4 11 1 352 18 4 357 51 81 39 351 354 354 357 355 349 347 355 19 19 82 135 136 126 150 315 323 177 166 121 112 91 131 54 51 115 121 119 107 93 94 100 92 79 91 98 89 88 88 88 74 40 33 60 70 46 37 23 28 41 34 45 45 33 31 35 42 42
7 4 359 356 351 344 340 339 336 335 337 357 16 21 25 26 27 17 5 4 9 22 13 305 339 338 357 47 102 299 349 353 355 0 360 359 3 19 37 20 64 125 137 127 156 269 118 184 130 92 112 127 124 77 89 131 123 120 109 102 110 106 82 32 43 3 78 134 136 75 64 30 25 50 49 49 58 36 36 35 27 46 47 35 33 35 46 47
5 2 358 355 351 346 343 341 339 336 330 342 10 24 29 27 26 19 9 10 10 12 2 323 311 319 4 9 252 339 351 352 357 2 6 10 14 46 63 55 86 104 105 111 132 126 120 234 108 107 118 89 118 86 117 133 125 120 111 115 128 105 65 3 6 350 41 133 278 31 75 26 26 46 37 30 51 45 46 39 24 39 48 44 37 37 48 47
3 360 357 354 352 347 344 345 344 337 324 303 297 14 29 25 22 19 11 17 21 10 349 303 329 333 359 298 255 350 348 353 4 5 6 10 51 95 79 86 91 92 94 106 123 117 109 263 74 94 46 74 109 128 116 126 133 124 112 120 132 114 94 10 14 12 43 340 326 88 99 78 52 45 39 23 23 49 59 51 36 35 45 43 34 38 46 46
2 359 356 354 351 347 345 349 346 339 323 297 271 301 27 25 19 17 8 3 25 17 11 237 326 358 46 316 309 341 349 0 5 2 2 4 68 102 91 98 92 91 104 109 118 127 121 336 58 76 346 17 66 127 130 127 134 137 125 131 137 119 124 35 22 16 80 358 19 87 99 100 86 64 60 35 9 47 68 63 49 44 45 40 32 32 39 44
0 358 357 353 351 348 346 348 345 341 326 298 268 255 12 25 17 18 15 323 354 17 34 18 330 12 102 338 331 345 355 354 348 353 2 11 80 127 116 100 88 92 103 106 109 114 56 23 47 73 67 40 73 133 136 118 132 199 142 136 138 126 144 103 25 6 62 31 17 84 118 112 97 93 78 40 4 25 63 63 52 51 49 47 39 31 33 33
359 358 356 354 352 348 346 352 346 343 335 297 259 249 267 3 12 22 29 51 62 4 31 20 348 51 103 351 349 349 337 332 336 352 5 28 106 134 124 93 76 88 93 95 87 60 27 21 29 52 51 48 56 147 145 144 157 182 128 120 110 110 130 129 51 16 57 85 65 84 104 104 109 108 78 47 26 26 49 55 50 51 51 54 50 38 34 24
358 357 356 354 351 348 349 356 348 347 350 303 247 246 261 291 356 23 31 46 53 9 22 13 9 87 338 340 345 317 311 319 334 355 7 36 112 136 114 82 99 98 79 70 40 21 23 10 47 66 25 33 33 157 156 158 158 153 140 129 107 89 83 85 88 56 75 84 81 85 95 101 103 96 84 71 53 47 45 46 46 42 47 52 46 40 34 27
357 356 355 353 350 349 351 0 355 352 359 332 229 247 269 283 295 23 29 38 45 46 28 349 14 116 272 311 313 314 317 318 334 2 12 26 101 123 89 87 105 85 69 59 14 18 46 27 44 69 33 4 31 131 180 151 116 122 120 120 118 98 80 88 101 106 90 80 64 76 95 98 85 70 75 68 50 56 45 43 42 32 43 47 43 37 25 31
356 355 354 352 349 347 350 3 1 355 1 358 223 265 300 330 350 354 14 28 56 76 114 270 353 115 302 298 311 335 340 336 360 10 11 11 70 111 64 64 53 45 65 82 62 28 72 71 55 129 196 255 222 176 239 123 95 98 97 96 100 97 91 103 117 133 94 80 56 65 86 83 71 55 42 40 42 44 37 41 34 25 39 37 42 31 3 20
354 354 354 353 349 347 348 357 2 3 360 355 197 92 29 120 55 341 331 2 139 141 146 257 225 174 328 298 327 351 351 331 0 10 9 6 22 45 12 36 48 48 18 3 85 36 62 79 341 241 215 234 227 216 205 114 101 95 100 98 87 92 94 87 103 113 80 96 90 80 84 71 62 57 43 49 50 35 26 38 28 22 33 20 23 14 341 341
354 354 354 354 350 348 350 354 1 7 358 4 89 80 73 116 80 315 279 23 311 202 213 296 255 6 342 337 358 356 356 348 356 2 3 4 16 23 2 49 72 88 359 3 69 38 59 65 302 278 223 192 182 196 121 107 103 102 105 102 92 102 107 77 54 46 71 101 115 107 87 71 54 53 45 52 61 52 40 44 29 12 14 4 344 330 329 334
354 354 355 356 354 351 355 358 359 6 22 46 72 71 73 78 45 309 143 98 323 289 36 360 21 359 352 16 359 353 28 36 349 347 357 2 14 22 33 51 74 88 29 47 94 83 88 302 302 290 173 120 104 123 116 103 97 109 114 108 114 134 120 86 45 54 61 90 125 122 93 78 64 50 31 36 64 83 57 46 30 8 329 304 312 315 338 349
354 356 356 357 358 355 352 0 3 17 39 54 63 58 59 33 9 63 75 113 311 323 25 30 38 2 355 347 346 353 74 36 352 343 352 2 3 356 49 59 73 69 39 67 86 84 61 316 307 149 130 111 110 119 113 106 84 78 105 120 132 132 105 105 107 86 72 82 121 117 88 74 36 44 345 338 22 107 62 34 347 331 302 311 329 330 336 334
356 357 357 360 2 359 351 15 14 21 42 55 48 33 16 321 260 136 67 72 356 330 350 15 18 3 350 332 344 350 202 8 43 341 345 0 352 317 41 27 79 61 29 57 72 73 22 338 0 108 115 108 113 113 99 120 117 74 50 126 130 123 115 120 123 107 90 97 179 35 85 95 330 300 240 241 255 245 57 356 295 289 300 319 323 307 305 301
359 359 358 2 5 2 350 34 13 19 60 43 16 10 18 223 222 167 92 65 25 337 343 357 357 356 351 338 336 331 126 1 344 352 2 6 355 191 51 358 87 58 197 89 73 85 4 357 30 86 100 93 96 86 20 98 119 98 329 128 127 125 126 130 126 112 108 127 135 8 96 143 279 257 225 203 246 259 248 269 265 270 280 277 266 261 263 270
2 2 0 2 7 9 10 2 8 36 82 3 333 326 289 184 186 159 79 46 20 348 345 343 332 352 353 341 335 2 106 312 321 2 6 2 350 289 54 34 47 30 226 153 64 14 344 13 30 56 73 64 66 59 345 37 103 93 61 110 122 123 124 127 113 103 111 119 108 33 25 103 201 253 204 170 242 269 262 255 252 250 253 249 250 249 249 249
4 4 3 3 4 9 21 21 12 61 55 345 175 185 203 178 157 102 80 63 355 335 334 316 324 346 348 345 1 58 174 290 342 354 340 359 7 16 59 45 57 48 29 96 89 307 333 26 22 40 65 55 25 329 340 86 86 86 95 96 99 100 101 93 90 105 108 103 88 3 13 79 234 298 58 110 249 255 246 236 233 237 241 243 248 247 246 244
4 3 4 5 4 5 8 5 8 12 344 55 132 134 166 157 87 61 71 82 323 326 257 330 339 342 342 350 19 45 357 341 58 306 319 9 23 34 76 36 65 65 47 72 88 22 22 38 349 33 61 47 25 10 45 86 95 109 100 88 73 71 67 60 78 105 80 74 84 339 1 95 217 262 168 162 250 241 230 227 231 234 237 239 243 243 242 244
4 4 4 7 8 4 357 334 355 359 0 129 147 149 150 127 63 58 43 41 321 321 302 6 351 333 350 359 5 12 18 9 347 322 339 20 22 30 81 225 71 73 62 67 73 63 64 38 315 40 39 355 69 55 44 77 101 112 95 87 80 58 47 52 41 62 68 39 248 280 313 117 216 256 200 195 227 208 195 209 229 232 237 239 237 240 238 236
5 8 7 8 9 6 1 334 338 347 16 139 153 140 133 86 55 83 54 333 334 328 341 5 341 344 0 6 354 350 4 0 352 11 14 10 21 26 26 359 25 55 61 59 58 60 50 36 32 64 18 35 76 69 42 52 78 87 91 107 100 54 18 39 4 28 88 269 266 307 320 321 192 260 220 216 234 202 183 193 205 217 230 237 237 240 238 234
6 13 11 8 8 8 4 339 326 331 354 166 158 95 101 53 31 88 286 319 347 333 339 330 319 343 340 333 1 347 346 3 3 25 24 9 31 40 42 29 346 45 59 37 19 55 51 44 38 25 45 46 64 85 65 17 40 68 87 81 88 71 23 53 5 359 120 241 277 3 353 339 233 254 226 219 228 219 205 200 198 203 213 227 232 235 237 237
349 12 11 8 8 7 2 349 338 341 182 172 147 49 80 77 32 290 290 323 0 326 315 301 308 323 325 340 5 345 347 18 359 10 21 29 46 53 55 35 8 24 69 31 24 51 65 49 23 5 15 21 28 95 108 85 41 57 96 86 95 102 82 109 292 336 278 249 312 353 350 313 288 284 230 224 230 224 220 216 209 204 209 221 227 233 245 246
313 355 8 8 9 5 2 2 14 83 176 161 92 44 64 73 339 308 327 282 271 321 314 307 314 323 349 21 351 333 0 22 358 12 14 24 37 19 13 19 13 9 73 66 45 43 71 52 14 7 351 360 22 54 80 112 80 27 153 115 116 131 133 167 192 175 217 265 337 340 327 207 263 274 227 235 254 257 243 237 252 252 245 254 271 268 254 251
307 328 5 10 11 8 6 6 22 81 167 110 71 58 70 83 259 293 313 259 269 320 302 306 329 352 3 352 332 348 19 356 359 24 26 30 47 16 345 350 2 8 33 54 32 33 64 43 334 351 339 11 21 2 13 79 82 85 85 71 68 162 136 133 161 165 167 98 347 296 246 215 229 265 279 285 284 283 261 248 273 274 268 277 280 260 243 246
319 307 6 13 11 8 14 29 53 79 156 86 69 58 85 166 238 152 202 271 18 313 310 338 14 27 359 334 339 351 1 18 11 22 26 36 49 22 1 314 351 19 29 58 66 66 83 64 316 334 8 52 36 354 59 102 190 88 69 70 101 136 115 111 118 73 84 116 171 298 271 291 306 295 322 353 301 279 285 250 246 251 259 260 251 246 239 239
333 291 11 14 8 4 13 47 64 66 77 75 72 78 199 189 212 188 276 330 345 303 349 19 12 32 7 337 338 342 349 10 18 22 20 23 29 10 0 306 333 34 16 194 97 32 112 120 317 357 33 338 27 51 34 42 99 96 116 160 155 95 95 106 101 24 40 122 274 320 271 295 325 292 328 351 264 264 257 236 239 246 248 244 241 239 236 236
341 320 25 10 3 0 6 15 48 55 66 66 69 115 183 187 229 213 283 334 263 334 39 60 0 47 63 354 335 333 347 359 3 29 38 18 21 3 2 330 313 28 359 313 75 5 85 99 310 334 85 304 354 60 13 348 26 80 119 145 120 103 78 49 87 106 75 87 289 304 282 258 220 223 276 243 223 233 232 226 232 236 235 234 240 241 239 242
347 0 26 360 357 0 17 40 71 56 64 72 73 132 182 253 263 227 252 325 285 10 39 38 351 38 58 63 315 317 350 14 353 28 66 19 23 26 23 352 301 347 354 15 92 286 92 101 325 294 264 308 1 51 23 329 348 25 55 24 21 113 132 80 85 137 126 123 254 320 337 275 229 215 218 222 223 221 218 220 226 231 232 231 234 239 239 237
6 50 334 353 360 1 22 48 61 49 57 93 160 157 114 248 277 259 225 244 312 30 43 17 14 37 19 25 58 308 0 29 358 31 61 20 18 0 17 20 318 326 337 13 93 255 313 93 116 301 341 34 26 36 94 253 325 355 27 19 8 37 76 99 67 63 98 125 174 24 356 277 252 212 210 238 251 239 221 224 233 237 236 235 237 238 238 235
43 61 315 348 2 6 23 43 49 40 69 99 144 118 77 220 279 317 237 208 269 350 81 118 79 64 40 9 18 317 0 27 21 46 46 16 38 8 3 33 333 315 334 8 30 26 356 76 112 337 5 48 355 316 171 173 177 128 60 68 108 62 101 91 39 347 77 105 160 130 330 274 260 199 217 246 256 248 235 227 240 250 241 239 240 234 234 236
61 80 319 348 3 48 57 53 40 43 95 93 37 153 297 204 153 342 343 31 8 346 40 78 87 77 98 6 342 342 30 31 17 33 41 357 21 284 316 352 326 288 28 26 333 336 78 89 83 50 351 186 273 316 25 136 163 129 73 97 111 54 91 107 111 262 74 63 150 118 41 271 262 213 225 249 251 251 243 223 236 253 248 243 245 242 238 239
78 178 328 355 354 80 65 60 347 28 73 257 311 272 294 23 102 339 0 15 14 30 32 40 68 46 53 326 2 36 33 41 29 22 24 303 290 242 298 336 334 319 61 40 308 331 67 75 68 356 300 316 333 342 6 10 68 96 34 46 86 26 59 130 162 159 113 142 193 63 356 274 274 260 242 255 265 270 262 235 238 255 263 257 254 255 249 246
103 201 324 5 10 139 95 88 138 78 97 291 19 3 323 324 2 11 14 348 352 72 69 40 306 18 61 142 94 42 343 63 58 4 13 308 299 272 328 342 357 18 33 353 305 326 31 59 79 53 359 350 352 349 346 348 15 99 347 355 51 63 67 103 136 79 83 182 155 104 251 257 268 300 297 290 301 293 270 244 235 248 265 271 266 264 259 257
59 188 281 8 31 65 110 156 142 127 146 111 70 28 354 16 4 14 44 1 1 133 102 25 334 28 99 70 51 14 343 70 76 357 22 348 296 318 349 344 2 10 344 351 342 355 92 77 90 99 91 57 343 302 291 297 318 354 335 352 48 73 68 70 105 68 48 208 152 155 218 265 289 313 330 327 340 323 294 288 273 255 260 270 272 272 270 267
74 66 296 351 25 52 78 153 98 108 150 135 91 37 67 79 335 305 99 59 43 103 62 19 325 350 54 49 42 11 354 20 69 63 42 325 289 282 322 328 353 344 341 60 44 60 108 80 77 129 152 176 188 213 236 238 203 276 307 310 25 108 101 91 86 88 195 174 198 220 211 289 298 298 318 318 326 317 294 301 302 283 275 273 272 275 274 267
87 106 74 340 5 41 45 25 52 86 147 140 112 83 116 101 326 326 92 137 150 82 47 38 26 26 36 40 52 25 350 357 30 54 40 295 280 278 305 316 349 340 344 64 43 65 98 55 49 140 191 211 198 217 258 11 205 206 203 218 212 166 126 110 140 222 164 121 284 254 189 239 277 278 290 294 301 299 288 292 295 292 290 282 278 282 280 277
59 145 158 78 67 74 61 51 85 87 75 86 106 105 96 88 72 113 173 323 63 50 53 53 28 21 15 16 83 59 355 0 21 16 335 306 314 318 327 323 329 346 3 16 341 78 103 73 159 167 264 257 236 250 245 214 233 210 197 213 208 171 164 179 214 202 163 173 245 231 167 238 267 280 289 285 288 288 285 287 289 289 289 285 287 288 281 280
72 112 24 4 94 155 189 79 102 94 76 78 96 95 130 136 135 175 236 30 24 342 44 83 15 344 339 339 106 99 2 21 32 320 283 330 328 337 357 331 291 352 26 25 350 73 111 81 189 173 309 301 281 274 216 188 249 269 231 222 207 195 195 205 227 206 186 233 262 269 282 276 270 270 277 282 285 277 278 288 288 284 287 289 292 286 279 277
134 146 154 64 73 109 352 35 78 84 58 54 81 103 145 144 158 187 78 62 61 334 15 104 157 210 334 13 86 100 201 143 119 267 199 146 325 343 46 304 286 344 8 26 341 330 78 69 177 151 346 321 323 12 76 132 200 277 271 245 206 205 220 226 238 204 199 264 279 291 291 282 270 246 259 280 305 301 289 290 284 279 284 292 294 288 282 279
94 131 140 113 75 351 354 24 61 89 61 19 121 162 172 175 181 154 82 18 100 59 352 141 152 146 35 39 59 61 263 173 147 209 186 160 337 26 78 253 253 333 348 17 352 344 52 86 28 63 40 307 292 37 351 334 337 279 285 266 214 196 207 216 214 196 190 207 231 233 270 265 258 257 281 288 301 295 281 277 280 281 276 274 277 278 276 274
94 93 119 106 79 340 14 35 30 94 140 236 143 156 177 187 178 128 85 18 52 44 233 157 147 116 48 45 36 321 263 185 147 137 144 124 71 66 68 44 56 12 345 18 16 357 60 96 43 48 50 273 277 311 303 335 26 304 279 242 189 185 202 219 241 227 205 171 153 201 233 235 228 334 323 302 294 284 274 262 262 276 277 268 261 264 270 272